Change the Weather History Date:

Monday, November 5, 2012

  Actual Average Record
Temperature  
Mean Temperature 70 °F -  
Max Temperature 87 °F 79 °F 88 °F (1975)
Min Temperature 52 °F 49 °F 34 °F (1956)
Cooling Degree Days 4    
Growing Degree Days 20 (Base 50)    
Moisture  
Dew Point 25 °F    
Average Humidity 21    
Maximum Humidity 36    
Minimum Humidity 8    
Precipitation  
Precipitation 0.00 in - - ()
Sea Level Pressure  
Sea Level Pressure 30.02 in    
Wind  
Wind Speed 7 mph (East)    
Max Wind Speed 12 mph    
Max Gust Speed -    
Visibility 10 miles    
Events      
Averages and records for this station are not official NWS values.
T = Trace of Precipitation, MM = Missing Value Source: NWS Daily Summary

Daily Weather History Graph

Daily Weather History Graph

Search for Another Location

Airport or City:

Trip Planner

Search our weather history database for the weather conditions in past years. The results will help you decide how hot, cold, wet, or windy it might be!

Date:

Astronomy

Nov. 05, 2012 Rise Set
Actual Time 6:44 AM MST 5:29 PM MST
Civil Twilight 6:18 AM MST 5:55 PM MST
Nautical Twilight 5:49 AM MST 6:24 PM MST
Astronomical Twilight 5:20 AM MST 6:53 PM MST
Moon 11:09 PM MST (11/5) 12:05 PM MST (11/5)
Length of Visible Light 11h 36m
Length of Day
10h 45m
Waning Gibbous, 62% of the Moon is Illuminated
Nov 5
Waning Gibbous
Nov 6
Last Quarter
Nov 13
New
Nov 20
First Quarter
Nov 28
Full

Hourly Weather History & Observations

Time (MST) Temp. Dew Point Humidity Pressure Visibility Wind Dir Wind Speed Gust Speed Precip Events Conditions
12:58 AM 59.2 °F 27.3 °F 30% 30.03 in 10.0 mi SE 10.4 mph - N/A   Clear
1:58 AM 57.9 °F 27.0 °F 31% 30.04 in 10.0 mi ESE 6.9 mph - N/A   Clear
2:58 AM 55.2 °F 26.8 °F 34% 30.04 in 10.0 mi SSE 10.4 mph - N/A   Clear
3:58 AM 57.2 °F 25.9 °F 30% 30.02 in 10.0 mi SE 11.5 mph - N/A   Clear
4:58 AM 55.8 °F 25.9 °F 32% 30.04 in 10.0 mi ESE 4.6 mph - N/A   Clear
5:58 AM 54.7 °F 25.7 °F 33% 30.05 in 10.0 mi SE 8.1 mph - N/A   Clear
6:58 AM 52.2 °F 25.5 °F 36% 30.07 in 10.0 mi SSE 8.1 mph - N/A   Clear
7:58 AM 60.4 °F 25.7 °F 27% 30.07 in 10.0 mi East 2.3 mph - N/A   Clear
8:58 AM 69.1 °F 26.8 °F 21% 30.08 in 10.0 mi Calm Calm - N/A   Clear
9:58 AM 75.2 °F 28.0 °F 18% 30.07 in 10.0 mi North 1.2 mph - N/A   Clear
10:58 AM 77.9 °F 28.8 °F 16% 30.05 in 10.0 mi North 4.6 mph - N/A   Clear
11:58 AM 82.6 °F 25.5 °F 12% 30.01 in 10.0 mi North 3.5 mph - N/A   Clear
12:58 PM 84.9 °F 25.3 °F 11% 29.97 in 10.0 mi Variable 3.5 mph - N/A   Clear
1:58 PM 86.4 °F 21.7 °F 9% 29.95 in 10.0 mi NW 4.6 mph - N/A   Clear
2:58 PM 87.1 °F 19.4 °F 8% 29.95 in 10.0 mi WNW 3.5 mph - N/A   Clear
3:58 PM 86.4 °F 19.4 °F 8% 29.95 in 10.0 mi NNW 9.2 mph - N/A   Clear
4:58 PM 84.4 °F 22.6 °F 10% 29.96 in 10.0 mi NW 10.4 mph - N/A   Clear
5:58 PM 77.5 °F 23.4 °F 13% 29.98 in 10.0 mi WNW 9.2 mph - N/A   Clear
6:58 PM 73.9 °F 23.9 °F 15% 30.00 in 10.0 mi NW 8.1 mph - N/A   Clear
7:58 PM 71.1 °F 24.4 °F 17% 30.00 in 10.0 mi NW 6.9 mph - N/A   Clear
8:58 PM 65.3 °F 23.7 °F 21% 30.00 in 10.0 mi South 6.9 mph - N/A   Clear
9:58 PM 63.0 °F 23.9 °F 23% 30.02 in 10.0 mi SSE 8.1 mph - N/A   Clear
10:58 PM 59.9 °F 22.3 °F 24% 30.03 in 10.0 mi SE 6.9 mph - N/A   Clear
11:58 PM 58.8 °F 22.3 °F 24% 30.01 in 10.0 mi East 6.9 mph - N/A   Clear